QPF
0.00 0.00 0.00 0.00 0.00 0.00 0.00 0.00 0.00 0.00 0.00 0.00 0.00 0.00 0.00 0.00 0.00 0.00 0.00 0.00 0.00 0.00 0.00 0.00 0.00 0.00 0.00 0.00 0.00 0.00 0.00 0.00 0.00 0.00 0.00 0.00 0.00 0.00 0.00 0.00 0.00 0.00 0.00 0.00 0.00
0.00 0.00 0.00 0.00 0.00 0.00 0.00 0.00 0.00 0.00 0.00 0.00 0.00 0.00 0.00 0.00 0.00 0.00 0.00 0.00 0.00 0.00 0.00 0.00 0.00 0.00 0.00 0.00 0.00 0.00 0.00 0.00 0.00 0.00 0.00 0.00 0.00 0.00 0.00 0.00 0.00 0.00 0.00 0.00 0.00
0.00 0.00 0.00 0.00 0.00 0.00 0.00 0.00 0.00 0.00 0.00 0.00 0.00 0.00 0.00 0.00 0.00 0.00 0.00 0.00 0.00 0.00 0.00 0.00 0.00 0.00 0.00 0.00 0.00 0.00 0.00 0.00 0.00 0.00 0.00 0.00 0.00 0.00 0.00 0.00 0.00 0.00 0.00 0.00 0.00
0.00 0.00 0.00 0.00 0.00 0.00 0.00 0.00 0.00 0.00 0.00 0.00 0.00 0.00 0.00 0.00 0.00 0.00 0.00 0.00 0.00 0.00 0.00 0.00 0.00 0.00 0.00 0.00 0.00 0.00 0.00 0.00 0.00 0.00 0.00 0.00 0.00 0.00 0.00 0.00 0.00 0.00 0.00 0.00 0.00
0.00 0.00 0.00 0.00 0.00 0.00 0.00 0.00 0.00 0.00 0.00 0.00 0.00 0.00 0.00 0.00 0.00 0.00 0.00 0.00 0.00 0.00 0.00 0.00 0.00 0.00 0.00 0.00 0.00 0.00 0.00 0.00 0.00 0.00 0.00 0.00 0.00 0.00 0.00 0.00 0.00 0.00 0.00 0.00 0.00
0.00 0.00 0.00 0.00 0.00 0.00 0.00 0.00 0.00 0.00 0.00 0.00 0.00 0.00 0.00 0.00 0.00 0.00 0.00 0.00 0.00 0.00 0.00 0.00 0.00 0.00 0.00 0.00 0.00 0.00 0.00 0.00 0.00 0.00 0.00 0.00 0.00 0.00 0.00 0.00 0.00 0.00 0.00 0.00 0.00
0.00 0.00 0.00 0.00 0.00 0.00 0.00 0.00 0.00 0.00 0.00 0.00 0.00 0.00 0.00 0.00 0.00 0.00 0.00 0.00 0.00 0.00 0.00 0.00 0.00 0.00 0.00 0.00 0.00 0.00 0.00 0.00 0.00 0.00 0.00 0.00 0.00 0.00 0.00 0.00 0.00 0.00 0.00 0.00 0.00
0.00 0.00 0.00 0.00 0.00 0.00 0.00 0.00 0.00 0.00 0.00 0.00 0.00 0.00 0.00 0.00 0.00 0.00 0.00 0.00 0.00 0.00 0.00 0.00 0.00 0.00 0.00 0.00 0.00 0.00 0.00 0.00 0.00 0.00 0.00 0.00 0.00 0.00 0.00 0.00 0.00 0.00 0.00 0.00 0.00
0.00 0.00 0.00 0.00 0.00 0.00 0.00 0.00 0.00 0.00 0.00 0.00 0.00 0.00 0.00 0.00 0.00 0.00 0.00 0.00 0.00 0.00 0.00 0.00 0.00 0.00 0.00 0.00 0.00 0.00 0.00 0.00 0.00 0.00 0.00 0.00 0.00 0.00 0.00 0.00 0.00 0.00 0.00 0.00 0.00
0.00 0.00 0.00 0.00 0.00 0.00 0.00 0.00 0.00 0.00 0.00 0.00 0.00 0.00 0.00 0.00 0.00 0.00 0.00 0.00 0.00 0.00 0.00 0.00 0.00 0.00 0.00 0.00 0.00 0.00 0.00 0.00 0.00 0.00 0.00 0.00 0.00 0.00 0.00 0.00 0.00 0.00 0.00 0.00 0.00
0.00 0.00 0.00 0.00 0.00 0.00 0.00 0.00 0.00 0.00 0.00 0.00 0.00 0.00 0.00 0.00 0.00 0.00 0.00 0.00 0.00 0.00 0.00 0.00 0.00 0.00 0.00 0.00 0.00 0.00 0.00 0.00 0.00 0.00 0.00 0.00 0.00 0.00 0.00 0.00 0.00 0.00 0.00 0.00 0.00
0.00 0.00 0.00 0.00 0.00 0.00 0.00 0.00 0.00 0.00 0.00 0.00 0.00 0.00 0.00 0.00 0.00 0.00 0.00 0.00 0.00 0.00 0.00 0.00 0.00 0.00 0.00 0.00 0.00 0.00 0.00 0.00 0.00 0.00 0.00 0.00 0.00 0.00 0.00 0.00 0.00 0.00 0.00 0.00 0.00
0.00 0.00 0.00 0.00 0.00 0.00 0.00 0.00 0.00 0.00 0.00 0.00 0.00 0.00 0.00 0.00 0.00 0.00 0.00 0.00 0.00 0.00 0.00 0.00 0.00 0.00 0.00 0.00 0.00 0.00 0.00 0.00 0.00 0.00 0.00 0.00 0.00 0.00 0.00 0.00 0.00 0.00 0.00 0.00 0.00
0.00 0.00 0.00 0.00 0.00 0.00 0.00 0.00 0.00 0.00 0.00 0.00 0.00 0.00 0.00 0.00 0.00 0.00 0.00 0.00 0.00 0.00 0.00 0.00 0.00 0.00 0.00 0.00 0.00 0.00 0.00 0.00 0.00 0.00 0.00 0.00 0.00 0.00 0.00 0.00 0.00 0.00 0.00 0.00 0.00
0.00 0.00 0.00 0.00 0.00 0.00 0.00 0.00 0.00 0.00 0.00 0.00 0.00 0.00 0.00 0.00 0.00 0.00 0.00 0.00 0.00 0.00 0.00 0.00 0.00 0.00 0.00 0.00 0.00 0.00 0.00 0.00 0.00 0.00 0.00 0.00 0.00 0.00 0.00 0.00 0.00 0.00 0.00 0.00 0.00
0.00 0.00 0.00 0.00 0.00 0.00 0.00 0.00 0.02 0.03 0.01 0.00 0.00 0.00 0.00 0.00 0.00 0.00 0.00 0.00 0.00 0.00 0.00 0.00 0.00 0.00 0.00 0.00 0.00 0.00 0.00 0.00 0.00 0.00 0.00 0.00 0.00 0.00 0.00 0.00 0.00 0.00 0.00 0.00 0.00
0.00 0.00 0.00 0.00 0.00 0.00 0.00 0.01 0.07 0.04 0.00 0.00 0.00 0.00 0.00 0.00 0.00 0.00 0.00 0.00 0.00 0.00 0.00 0.00 0.00 0.00 0.00 0.00 0.00 0.00 0.00 0.00 0.00 0.00 0.00 0.00 0.00 0.00 0.00 0.00 0.00 0.00 0.00 0.00 0.00
0.00 0.00 0.00 0.00 0.00 0.00 0.01 0.05 0.07 0.02 0.00 0.00 0.00 0.00 0.00 0.00 0.00 0.00 0.00 0.00 0.00 0.02 0.01 0.00 0.00 0.00 0.00 0.00 0.00 0.00 0.00 0.00 0.00 0.00 0.00 0.00 0.00 0.00 0.00 0.00 0.00 0.00 0.00 0.00 0.00
0.00 0.00 0.00 0.00 0.00 0.00 0.03 0.08 0.08 0.02 0.00 0.00 0.01 0.01 0.00 0.00 0.00 0.00 0.00 0.00 0.00 0.03 0.05 0.00 0.00 0.00 0.00 0.00 0.00 0.00 0.00 0.00 0.00 0.00 0.00 0.00 0.00 0.00 0.00 0.00 0.00 0.00 0.00 0.00 0.00
0.00 0.00 0.00 0.00 0.00 0.02 0.06 0.08 0.04 0.00 0.00 0.02 0.06 0.04 0.02 0.00 0.01 0.00 0.00 0.01 0.00 0.01 0.01 0.01 0.04 0.00 0.00 0.00 0.00 0.00 0.00 0.00 0.00 0.00 0.00 0.00 0.00 0.00 0.00 0.00 0.00 0.00 0.00 0.00 0.00
0.00 0.01 0.00 0.00 0.00 0.05 0.05 0.05 0.01 0.00 0.01 0.04 0.05 0.05 0.04 0.00 0.00 0.00 0.00 0.01 0.00 0.01 0.00 0.00 0.05 0.01 0.00 0.00 0.00 0.00 0.00 0.00 0.00 0.00 0.00 0.00 0.00 0.00 0.00 0.00 0.00 0.00 0.00 0.00 0.00
0.00 0.00 0.00 0.00 0.04 0.04 0.02 0.00 0.00 0.00 0.00 0.02 0.05 0.06 0.05 0.05 0.02 0.00 0.00 0.02 0.00 0.00 0.00 0.00 0.02 0.02 0.01 0.00 0.00 0.00 0.00 0.00 0.00 0.00 0.00 0.00 0.00 0.00 0.00 0.00 0.00 0.00 0.00 0.00 0.00
0.00 0.00 0.00 0.01 0.02 0.01 0.00 0.00 0.00 0.00 0.01 0.04 0.04 0.05 0.04 0.05 0.07 0.02 0.06 0.07 0.04 0.01 0.03 0.02 0.01 0.02 0.07 0.00 0.00 0.00 0.00 0.00 0.00 0.00 0.00 0.00 0.00 0.00 0.00 0.00 0.00 0.00 0.00 0.00 0.00
0.00 0.00 0.00 0.00 0.00 0.01 0.01 0.00 0.00 0.00 0.00 0.01 0.01 0.04 0.07 0.05 0.06 0.07 0.07 0.03 0.06 0.01 0.02 0.04 0.01 0.01 0.07 0.00 0.00 0.00 0.00 0.00 0.00 0.00 0.00 0.00 0.00 0.00 0.00 0.00 0.00 0.00 0.00 0.00 0.00
0.00 0.00 0.00 0.00 0.00 0.00 0.00 0.00 0.01 0.01 0.00 0.00 0.01 0.05 0.04 0.03 0.02 0.07 0.04 0.03 0.02 0.05 0.08 0.09 0.01 0.00 0.07 0.03 0.00 0.00 0.00 0.00 0.00 0.00 0.00 0.00 0.00 0.00 0.00 0.00 0.00 0.00 0.00 0.00 0.00
0.00 0.00 0.00 0.00 0.00 0.00 0.00 0.02 0.02 0.01 0.01 0.01 0.02 0.01 0.01 0.03 0.04 0.03 0.03 0.05 0.08 0.10 0.09 0.09 0.02 0.00 0.04 0.06 0.00 0.00 0.00 0.00 0.00 0.00 0.00 0.00 0.00 0.00 0.00 0.00 0.00 0.00 0.00 0.00 0.00
0.00 0.00 0.02 0.00 0.00 0.00 0.00 0.00 0.00 0.01 0.01 0.02 0.01 0.01 0.02 0.04 0.02 0.00 0.00 0.00 0.00 0.00 0.04 0.08 0.04 0.00 0.02 0.03 0.00 0.00 0.00 0.00 0.00 0.00 0.00 0.00 0.00 0.00 0.00 0.00 0.00 0.00 0.00 0.00 0.00
MSLP
1021.09 1020.79 1020.51 1020.23 1020.06 1019.56 1019.45 1018.98 1018.71 1018.38 1018.18 1017.88 1017.28 1016.90 1016.50 1016.12 1015.15 1013.32 1011.53 1009.76 1009.85 1010.46 1010.85 1009.93 1009.73 1008.96 1008.65 1007.90 1007.34 1006.24 1004.97 1002.84 1001.62 1000.65 999.64 999.41 999.68 999.51 1000.24 1000.52 1000.51 1000.73 1000.87 1001.10 1001.23
1021.20 1020.88 1020.58 1020.32 1019.86 1019.68 1019.32 1018.98 1018.76 1018.33 1017.89 1017.51 1017.09 1016.90 1016.23 1015.65 1014.11 1011.19 1009.46 1009.64 1009.95 1010.48 1010.33 1009.22 1008.48 1008.13 1007.46 1006.76 1006.33 1005.54 1003.99 1002.44 1001.43 1000.62 999.89 999.38 999.36 999.84 1000.17 1000.70 1000.87 1000.80 1000.56 1000.62 1000.80
1021.27 1020.82 1020.47 1020.18 1019.91 1019.61 1019.26 1018.96 1018.56 1018.27 1017.83 1017.43 1017.28 1016.79 1016.06 1015.38 1012.44 1008.54 1008.98 1009.20 1010.01 1010.30 1009.76 1008.65 1007.78 1007.12 1006.36 1005.77 1005.00 1004.31 1002.91 1002.35 1001.10 1000.59 1000.33 999.94 999.46 999.77 999.79 999.88 1000.12 1000.12 1000.43 1000.49 1000.92
1021.37 1020.94 1020.54 1020.06 1019.58 1019.29 1019.11 1018.86 1018.51 1018.15 1017.65 1017.60 1017.17 1016.55 1015.91 1015.03 1010.59 1008.58 1009.65 1009.92 1010.19 1010.15 1009.60 1008.75 1007.70 1006.23 1005.17 1004.32 1004.23 1003.21 1002.41 1002.09 1001.30 1000.85 1000.52 999.88 999.67 999.42 999.93 1000.08 1000.35 1000.38 1000.65 1000.70 1000.89
1021.44 1021.07 1020.71 1020.24 1019.73 1019.21 1018.74 1018.38 1018.12 1017.83 1017.46 1017.34 1016.85 1016.57 1015.68 1012.76 1009.29 1008.64 1009.23 1009.32 1008.95 1008.16 1008.10 1007.51 1006.54 1005.40 1003.50 1003.47 1003.28 1001.80 1001.57 1001.36 1001.01 1000.90 1000.54 1000.40 999.78 999.61 999.53 999.98 1000.12 1000.09 1000.35 1000.45 1000.39
1021.50 1021.08 1020.66 1020.21 1019.75 1019.28 1018.78 1018.17 1017.63 1017.26 1017.23 1016.94 1016.64 1016.63 1015.42 1011.64 1008.59 1008.34 1008.29 1008.58 1008.29 1007.46 1006.58 1006.47 1004.98 1004.45 1003.01 1002.49 1001.94 1001.51 1000.94 1000.47 1000.57 1000.33 1000.21 1000.14 999.35 999.57 999.57 999.80 999.39 999.56 999.69 999.90 999.64
1021.58 1021.13 1020.66 1020.13 1019.57 1019.00 1018.43 1017.89 1017.34 1016.82 1016.48 1016.29 1016.23 1015.88 1013.68 1010.45 1009.13 1008.73 1008.56 1008.17 1007.86 1007.31 1006.56 1005.52 1005.04 1003.94 1003.00 1001.96 1001.86 1001.45 1000.73 1000.16 999.61 999.75 999.45 999.96 998.45 998.59 999.07 999.04 998.72 998.73 998.80 998.94 998.94
1021.38 1020.92 1020.46 1019.95 1019.40 1018.77 1018.09 1017.34 1016.65 1016.08 1015.67 1015.45 1015.48 1014.93 1012.11 1009.70 1008.74 1008.27 1008.00 1007.64 1007.64 1007.58 1007.16 1006.30 1005.00 1004.07 1003.11 1002.67 1001.70 1001.25 1000.76 999.45 999.22 999.47 999.21 999.91 996.52 998.20 998.49 998.23 997.83 997.62 997.81 997.70 998.22
1021.29 1020.82 1020.32 1019.74 1019.10 1018.32 1017.51 1016.48 1015.63 1015.19 1014.96 1014.90 1014.65 1013.53 1010.00 1008.30 1008.51 1007.86 1007.83 1007.21 1006.87 1006.61 1006.64 1006.85 1006.19 1004.53 1003.71 1002.59 1001.62 1000.44 998.87 998.24 998.72 998.90 998.53 998.43 996.12 997.63 997.99 997.68 997.25 997.24 997.08 997.32 997.79
1021.14 1020.67 1020.12 1019.52 1018.80 1017.98 1017.09 1015.63 1014.22 1014.60 1014.18 1013.25 1012.42 1011.78 1008.74 1007.53 1006.57 1007.16 1006.76 1006.94 1006.55 1006.19 1005.79 1005.92 1005.65 1004.37 1003.01 1001.42 998.63 998.57 998.26 998.68 997.70 997.85 997.67 997.14 995.95 996.43 996.69 997.04 996.97 996.53 996.33 996.89 997.22
1021.08 1020.56 1019.99 1019.33 1018.58 1017.73 1016.61 1013.41 1012.92 1012.56 1011.70 1010.48 1009.35 1008.84 1007.05 1006.59 1006.57 1006.53 1006.59 1006.42 1006.41 1005.77 1004.35 1004.60 1004.54 1001.71 998.82 999.22 998.89 998.85 998.28 997.28 996.73 996.86 997.06 996.36 995.66 995.34 995.94 996.53 996.11 995.70 995.40 995.67 996.58
1020.78 1020.18 1019.54 1018.90 1018.18 1017.34 1016.35 1013.78 1013.35 1013.90 1011.97 1010.17 1008.77 1007.56 1007.08 1006.84 1006.19 1006.17 1006.60 1006.07 1005.51 1004.60 1004.57 1003.63 1001.18 997.63 1000.63 999.74 999.54 998.87 998.21 996.69 996.88 996.39 996.22 995.72 994.94 994.99 995.23 995.43 995.67 995.31 994.86 994.92 995.65
1020.74 1020.09 1019.39 1018.75 1017.74 1016.60 1014.67 1013.74 1013.72 1013.31 1012.02 1008.78 1006.58 1005.61 1005.32 1005.69 1005.07 1005.09 1005.45 1005.35 1004.73 1003.63 1002.87 1001.57 997.81 1001.08 999.62 999.14 998.52 997.50 997.12 997.05 996.65 996.75 996.16 995.80 994.73 994.45 994.88 994.96 995.06 994.96 994.77 994.74 994.71
1020.40 1019.76 1019.08 1018.52 1017.19 1015.08 1013.67 1014.12 1013.65 1013.33 1010.92 1005.44 1004.92 1004.60 1004.98 1005.04 1004.31 1004.15 1004.08 1004.54 1003.82 1002.87 1002.09 1000.78 999.88 999.01 998.71 997.73 997.42 996.25 996.91 997.29 997.07 996.95 995.77 996.32 993.78 993.45 993.93 993.73 993.73 993.81 993.67 993.47 993.63
1020.06 1019.36 1018.72 1018.57 1017.19 1015.02 1014.46 1014.04 1013.83 1013.77 1009.75 1004.79 1004.49 1004.63 1004.16 1004.35 1003.40 1003.32 1003.34 1003.80 1003.03 1002.41 1002.42 998.77 999.06 998.18 997.26 995.28 997.32 994.63 996.99 996.62 996.89 996.77 996.67 995.64 994.82 992.76 993.40 992.55 992.72 992.59 992.61 992.64 992.97
1019.78 1019.05 1018.34 1015.71 1016.28 1015.36 1014.53 1013.99 1013.99 1013.18 1008.04 1005.08 1005.08 1006.13 1004.14 1003.62 1003.09 1003.00 1003.27 1003.33 1003.02 1002.57 1001.38 999.33 998.94 997.47 996.64 996.71 996.12 996.59 996.46 996.31 996.30 996.32 995.38 994.68 994.50 991.37 991.90 991.73 991.30 991.42 991.54 991.62 992.05
1019.36 1018.76 1018.13 1016.60 1015.58 1015.21 1014.88 1014.23 1013.58 1010.65 1007.54 1006.67 1006.58 1006.34 1005.81 1004.08 1003.30 1003.03 1002.86 1003.14 1002.24 1001.99 1001.32 999.94 998.77 997.25 996.38 995.88 995.81 995.35 995.56 995.19 995.35 994.50 992.39 993.90 993.18 990.62 990.91 990.66 990.47 990.40 990.85 990.83 991.19
1018.97 1018.36 1017.24 1016.37 1016.42 1015.76 1015.22 1014.90 1012.18 1009.45 1008.53 1007.92 1007.23 1006.51 1005.57 1004.48 1003.60 1003.81 1003.30 1002.94 1002.41 1002.16 1002.11 999.31 998.41 996.92 995.52 994.55 993.86 993.81 993.83 993.05 992.20 992.32 992.35 992.37 990.90 989.89 989.79 989.72 989.65 990.09 990.43 990.88 992.25
1018.13 1016.49 1015.83 1015.88 1016.12 1015.87 1015.81 1013.78 1011.35 1010.03 1009.57 1009.10 1008.34 1007.19 1005.51 1004.16 1003.81 1003.33 1003.08 1002.60 1003.18 1004.16 1004.23 1000.01 997.29 996.54 995.62 994.61 993.95 992.75 992.55 992.00 992.56 991.28 990.57 989.30 988.77 989.30 989.30 989.14 989.41 989.58 990.44 991.26 992.61
1017.77 1015.60 1015.18 1015.78 1015.87 1015.60 1015.19 1013.20 1011.41 1010.39 1010.14 1009.60 1008.63 1008.35 1006.66 1005.05 1005.21 1004.28 1003.37 1004.74 1004.60 1005.33 1005.76 1002.65 999.49 995.72 994.35 994.71 993.65 992.16 991.76 992.73 992.30 990.84 989.23 988.97 987.91 987.90 987.96 987.86 988.27 989.13 989.83 991.08 992.76
1017.65 1014.91 1015.33 1015.59 1015.60 1015.19 1014.30 1012.61 1010.99 1010.74 1010.11 1010.26 1009.31 1008.39 1007.34 1006.23 1005.25 1004.35 1004.20 1004.19 1005.26 1005.37 1005.01 1004.03 1002.11 997.41 994.72 992.28 992.05 991.61 990.65 991.12 991.43 990.26 989.16 988.54 987.63 987.02 987.64 987.96 987.78 988.31 989.43 990.86 992.63
1016.19 1014.32 1014.96 1015.12 1015.39 1014.51 1013.83 1012.41 1011.30 1009.98 1009.66 1009.49 1009.61 1008.81 1007.82 1007.27 1006.58 1005.15 1004.44 1004.69 1005.81 1005.67 1004.49 1003.00 1001.83 998.71 995.02 992.57 992.00 990.95 990.08 990.50 989.78 989.56 989.00 988.26 987.81 987.79 988.01 987.68 987.75 988.18 989.37 990.92 992.45
1016.05 1014.40 1014.77 1014.97 1015.06 1014.61 1013.81 1012.01 1010.61 1009.92 1009.65 1009.36 1009.35 1008.76 1008.35 1007.76 1006.95 1005.54 1005.60 1007.39 1007.35 1007.01 1005.85 1004.80 1001.91 999.02 996.50 994.12 991.47 990.07 989.78 989.69 990.51 989.62 988.82 988.24 987.54 988.07 988.25 987.66 987.83 988.59 989.54 991.28 992.41
1016.49 1015.40 1014.14 1014.34 1015.01 1015.03 1014.08 1012.65 1011.29 1010.54 1009.73 1009.29 1008.61 1008.25 1009.20 1007.55 1006.55 1006.39 1006.66 1007.21 1007.77 1007.62 1006.98 1006.74 1003.21 999.13 997.36 994.67 991.85 990.21 989.21 988.93 989.25 988.77 988.19 988.18 987.42 988.00 988.39 988.20 988.77 989.76 990.63 991.53 992.51
1017.22 1016.20 1016.25 1015.25 1015.18 1015.32 1014.71 1013.28 1011.82 1010.88 1010.40 1009.67 1008.56 1008.12 1007.87 1007.36 1006.49 1006.52 1006.88 1006.47 1006.98 1007.13 1007.41 1006.81 1003.34 1000.01 998.15 997.33 993.99 990.64 989.09 988.35 988.10 988.70 987.65 987.95 987.84 987.69 987.87 988.36 989.30 990.31 991.06 991.86 992.60
1018.45 1017.72 1016.79 1015.97 1015.48 1014.98 1014.05 1013.21 1012.00 1011.50 1011.07 1010.03 1009.47 1008.64 1008.13 1007.51 1006.91 1006.44 1006.36 1006.30 1006.91 1007.37 1006.58 1006.10 1002.85 1000.46 999.33 999.02 995.77 991.76 989.35 988.54 988.24 988.81 988.23 987.61 987.98 987.89 988.37 988.85 989.72 990.36 991.12 991.86 992.47
1019.08 1019.08 1018.51 1016.63 1015.09 1014.50 1013.83 1013.39 1012.82 1012.16 1010.93 1010.23 1009.79 1009.31 1008.43 1007.80 1007.47 1006.62 1005.91 1005.33 1005.22 1005.44 1005.06 1004.98 1002.81 1000.26 999.98 999.23 996.67 991.97 989.41 988.25 988.39 988.88 988.92 988.66 989.37 989.09 989.29 989.58 990.12 990.16 990.83 991.49 992.15
Thickness
5619 5622 5625 5629 5631 5637 5637 5643 5646 5650 5653 5658 5666 5672 5677 5682 5693 5711 5723 5743 5742 5742 5741 5749 5748 5753 5757 5756 5766 5775 5746 5753 5773 5785 5803 5826 5807 5831 5822 5810 5814 5818 5812 5819 5824
5613 5616 5618 5620 5624 5626 5630 5635 5637 5641 5645 5650 5656 5660 5668 5676 5691 5712 5739 5739 5736 5732 5734 5738 5740 5746 5743 5752 5758 5751 5746 5761 5793 5801 5801 5818 5815 5811 5799 5792 5795 5803 5821 5823 5819
5607 5610 5613 5615 5617 5619 5622 5625 5630 5633 5638 5642 5645 5651 5659 5666 5692 5725 5731 5731 5725 5723 5730 5739 5744 5742 5736 5751 5755 5756 5747 5772 5789 5802 5804 5802 5807 5813 5799 5788 5800 5798 5805 5811 5807
5601 5603 5605 5608 5611 5613 5614 5616 5620 5624 5630 5630 5635 5643 5651 5659 5681 5713 5708 5712 5714 5715 5718 5721 5727 5728 5732 5737 5755 5743 5765 5770 5783 5790 5789 5790 5803 5796 5793 5791 5803 5803 5807 5800 5798
5594 5595 5597 5599 5601 5604 5607 5610 5611 5614 5618 5621 5627 5631 5642 5663 5686 5702 5700 5706 5713 5721 5715 5715 5718 5726 5731 5743 5750 5752 5762 5772 5781 5781 5781 5786 5780 5783 5785 5798 5803 5802 5801 5795 5796
5585 5586 5588 5590 5592 5594 5597 5600 5604 5607 5607 5610 5614 5617 5629 5650 5691 5692 5694 5697 5703 5708 5716 5716 5724 5734 5738 5740 5742 5762 5764 5766 5769 5770 5774 5767 5777 5778 5782 5794 5796 5795 5794 5793 5795
5574 5575 5577 5579 5582 5584 5588 5592 5595 5599 5601 5603 5604 5607 5625 5655 5672 5676 5681 5684 5693 5699 5702 5719 5722 5721 5734 5730 5751 5750 5739 5753 5761 5766 5764 5770 5759 5762 5785 5792 5790 5791 5794 5792 5794
5565 5566 5567 5568 5570 5573 5577 5581 5587 5591 5595 5597 5597 5602 5622 5652 5659 5666 5673 5674 5681 5688 5692 5702 5713 5713 5716 5731 5730 5722 5729 5720 5754 5759 5763 5755 5745 5773 5787 5786 5784 5791 5793 5793 5791
5555 5555 5555 5557 5559 5562 5567 5573 5579 5581 5582 5583 5587 5595 5621 5648 5641 5653 5655 5660 5668 5677 5682 5684 5687 5695 5700 5697 5700 5717 5711 5729 5735 5757 5757 5755 5751 5769 5781 5778 5777 5781 5786 5785 5783
5544 5544 5543 5543 5545 5548 5552 5562 5570 5567 5572 5578 5585 5589 5614 5624 5641 5640 5650 5649 5652 5658 5666 5665 5665 5669 5684 5694 5697 5714 5720 5718 5726 5752 5754 5749 5752 5767 5776 5770 5767 5777 5779 5775 5778
5532 5530 5528 5528 5530 5532 5537 5559 5565 5566 5571 5577 5588 5591 5609 5617 5624 5624 5633 5634 5635 5641 5648 5656 5640 5666 5714 5718 5729 5727 5720 5724 5744 5759 5744 5744 5752 5768 5768 5762 5767 5775 5779 5776 5775
5520 5517 5515 5513 5512 5513 5514 5529 5530 5522 5539 5554 5567 5579 5590 5588 5595 5607 5611 5611 5618 5622 5631 5634 5651 5723 5702 5710 5705 5709 5706 5722 5738 5755 5750 5746 5748 5759 5765 5761 5762 5767 5775 5777 5774
5505 5501 5497 5493 5494 5495 5504 5503 5499 5499 5508 5543 5557 5568 5575 5574 5583 5589 5594 5597 5603 5614 5622 5625 5697 5677 5688 5692 5696 5708 5706 5714 5722 5737 5743 5737 5730 5747 5756 5760 5762 5766 5770 5769 5774
5490 5484 5478 5473 5479 5487 5490 5482 5481 5481 5494 5543 5539 5551 5553 5556 5561 5581 5587 5583 5592 5601 5613 5627 5670 5668 5676 5682 5700 5698 5721 5718 5715 5710 5698 5732 5710 5741 5748 5750 5759 5761 5764 5772 5775
5477 5470 5464 5458 5464 5473 5468 5466 5465 5464 5497 5538 5531 5538 5543 5544 5553 5560 5572 5567 5573 5586 5586 5643 5642 5656 5658 5699 5695 5717 5717 5715 5712 5701 5702 5714 5705 5734 5748 5746 5748 5758 5764 5770 5775
5464 5460 5457 5472 5462 5461 5460 5458 5454 5455 5497 5530 5523 5504 5533 5539 5548 5552 5550 5558 5563 5564 5582 5625 5639 5656 5666 5685 5695 5707 5704 5707 5710 5701 5682 5713 5703 5728 5744 5746 5756 5763 5768 5774 5777
5459 5456 5455 5457 5459 5454 5452 5453 5447 5477 5511 5506 5498 5505 5505 5524 5537 5540 5539 5535 5549 5549 5556 5597 5601 5639 5662 5659 5685 5694 5689 5672 5669 5678 5696 5722 5709 5738 5758 5761 5760 5761 5765 5775 5782
5459 5457 5458 5453 5446 5443 5444 5435 5462 5492 5492 5497 5496 5499 5503 5520 5530 5523 5528 5530 5549 5553 5545 5577 5573 5618 5657 5661 5675 5684 5690 5684 5670 5684 5700 5727 5709 5742 5770 5772 5773 5773 5772 5774 5767
5466 5470 5462 5452 5442 5437 5431 5450 5463 5480 5482 5476 5480 5481 5499 5522 5526 5529 5531 5538 5531 5522 5514 5568 5589 5623 5635 5657 5668 5679 5679 5725 5705 5736 5727 5752 5757 5763 5769 5768 5769 5770 5768 5765 5761
5469 5476 5467 5451 5442 5439 5437 5454 5468 5477 5473 5473 5471 5474 5483 5504 5498 5514 5524 5508 5510 5509 5502 5538 5551 5614 5640 5646 5658 5677 5715 5679 5698 5685 5704 5732 5750 5745 5760 5769 5774 5768 5770 5767 5760
5469 5480 5467 5454 5447 5443 5442 5459 5473 5471 5471 5459 5465 5472 5482 5491 5500 5510 5513 5517 5504 5505 5512 5526 5523 5580 5627 5639 5648 5666 5685 5692 5709 5719 5713 5714 5739 5778 5766 5770 5774 5777 5775 5768 5758
5483 5481 5472 5463 5447 5456 5451 5465 5469 5475 5474 5469 5463 5469 5477 5480 5481 5499 5513 5511 5498 5503 5514 5537 5539 5557 5608 5654 5666 5682 5690 5693 5698 5696 5727 5736 5738 5771 5768 5779 5782 5780 5775 5768 5762
5486 5489 5477 5466 5450 5451 5458 5470 5477 5474 5471 5468 5462 5471 5475 5475 5474 5498 5501 5474 5479 5484 5497 5512 5543 5561 5582 5620 5660 5671 5690 5703 5700 5720 5711 5720 5736 5765 5766 5776 5781 5775 5774 5763 5760
5484 5473 5481 5472 5460 5449 5451 5460 5466 5471 5471 5472 5474 5477 5452 5476 5489 5486 5484 5481 5470 5475 5486 5483 5529 5564 5566 5619 5662 5663 5687 5704 5702 5698 5717 5723 5745 5748 5754 5761 5765 5763 5762 5761 5758
5479 5474 5465 5463 5457 5445 5448 5455 5461 5463 5466 5469 5475 5476 5476 5475 5487 5477 5478 5487 5484 5482 5477 5479 5526 5562 5571 5572 5612 5672 5686 5700 5701 5707 5721 5730 5739 5751 5760 5760 5757 5756 5757 5754 5754
5463 5464 5465 5465 5461 5455 5458 5454 5462 5460 5456 5461 5461 5471 5474 5475 5480 5478 5480 5482 5467 5469 5483 5484 5528 5555 5562 5558 5597 5636 5682 5695 5705 5706 5723 5741 5734 5761 5760 5763 5756 5756 5755 5751 5752
5462 5452 5443 5456 5468 5462 5461 5457 5453 5455 5462 5463 5461 5460 5465 5471 5470 5477 5485 5493 5496 5493 5499 5492 5523 5558 5552 5553 5580 5628 5668 5691 5703 5709 5714 5709 5718 5743 5741 5743 5745 5755 5757 5755 5754